User: anonymous   Login
Location: West Cummington
(42.4920°N, 72.9680°W)
Time: 14:46:56
(UTC-04:00)
Language:

Cosmos 841 Rocket - Orbit

View from above orbital plane
View from above orbital plane
View from above satellite
View from above satellite

Ground track
Ground track

The orbit data is extracted from the following two-line orbital elements,

1 09023U 76069B   16121.17011017  .00000150  00000-0  56614-4 0  9993
2 09023  74.0416 138.9746 0016678  43.4451 316.8015 14.39483063 85395
Epoch (UTC): 30 April 2016 04:04:57
Eccentricity: 0.0016678
inclination: 74.0416°
perigee height: 748 km
apogee height: 772 km
right ascension of ascending node: 138.9746°
argument of perigee: 43.4451°
revolutions per day: 14.39483063
mean anomaly at epoch: 316.8015°
orbit number at epoch: 8539

The dashed part of the orbit path shows where the satellite is in the earth's shadow,  

DLR